轨道通信卫星FM01星 (ORBCOMM FM01)

导读

ORBCOMM FM 1是ORBCOMM低轨卫星通信星座的首颗卫星,1995年4月3日由ORB发射升空,标志着全球首个专门面向物联网与机器对机器(M2M)通信的低轨星座正式启动组网。该卫星运行在近地轨道,采用窄带VHF/UHF频段传输,专为低速率短数据、远程监测服务设计,具备低延迟、低成本的特点,为后续ORBCOMM全球卫星通信系统的商用奠定了技术基础。

Basic Information
目录编号:
23545
目录名称:
ORBCOMM FM 1
国际标识:
1995-017A
轨道中心:
EARTH
卫星名称:
轨道通信卫星FM01星
卫星全名:
轨道通信卫星FM01星 (ORBCOMM FM01)
卫星状态:
在轨 (已飞行11393 天)
发射日期:
1995-04-03 UTC
国别 :
(ORB)
星等 :
--
Orbit Information
数据来源 国际轨道数据 AOE轨道数据
星历时间 2026-06-12T14:08:54+0800
14小时前
查看轨道信息
2026-06-11T05:00:00+0800
1天前
查看轨道信息
半长轴 6957.813km 6957.875km
偏心率 0.000261 0.0002941
轨道倾角 69.961° 69.962°
近地点辐角 179.814° 178.123°
升交点赤经 252.144° 255.617°
平近点角 180.302° 306.307°
近地点 577.86km 577.691km
远地点 581.492km 581.785km
周期 96.265分钟 96.266分钟
每日圈数 14.958695 14.958493
Detailed Information
平衡模式:
三轴稳定
覆盖范围:
全球
运营商:
轨道通信公司
运营商所在国:
美国
制造商(研发单位):
轨道ATK公司
制造商所在国:
美国
使用方式:
暂无
Satellite Introduction
轨道通信FM(Orbcomm FM)是一系列低地球轨道通信卫星,由美国卫星通信公司 Orbcomm运营。 截至2015年12月,已有63颗此类卫星绕地球运行。该卫星已退役。
2D Orbit Map
3D Orbit Map
Orbit Altitude Analysis Chart
Orbit Inclination Analysis Chart
Orbit Comprehensive Analysis Chart
View Comprehensive Chart